"Pseudo-MPEC" for C14FF52

Created 2019 Oct 10 13:07:05 UT using Find_Orb

Click here for an explanation of pseudo-MPECs

 
 Astrometry: 
     C14FF52  C2019 10 06.41183 06 22 24.41 +54 35 33.6    ~A6Aq 20.5 GVNEOCPG96
     C14FF52  C2019 10 06.41699 06 22 25.09 +54 35 32.6    ~A6Aq 20.4 GVNEOCPG96
     C14FF52  C2019 10 06.42213 06 22 25.67 +54 35 31.3    ~A6Aq 20.8 GVNEOCPG96
     C14FF52  C2019 10 06.42728 06 22 26.45 +54 35 29.9    ~A6Aq 20.9 GVNEOCPG96
     C14FF52  C2019 10 06.45110 06 22 29.43 +54 35 23.1    ~A6BM 20.8 GVNEOCPI52
     C14FF52  C2019 10 06.45448 06 22 29.90 +54 35 21.7    ~A6BM 20.8 GVNEOCPI52
     C14FF52  C2019 10 06.45785 06 22 30.35 +54 35 21.2    ~A6BM 21.2 GVNEOCPI52
     C14FF52  C2019 10 06.46123 06 22 30.76 +54 35 20.9    ~A6BM 20.8 GVNEOCPI52
     C14FF52  C2019 10 07.11052 06 23 56.60 +54 32 02.8    ~A73M 20.6 VVNEOCP033
     C14FF52  C2019 10 07.11339 06 23 56.97 +54 32 01.9    ~A73M 20.5 VVNEOCP033
     C14FF52  C2019 10 07.11627 06 23 57.34 +54 32 01.1    ~A73M 20.9 VVNEOCP033
     C14FF52  C2019 10 07.39706 06 24 34.44 +54 30 36.7    ~A7A7 20.4 GVNEOCPI52
     C14FF52  C2019 10 07.40043 06 24 34.86 +54 30 35.1    ~A7A7 20.4 GVNEOCPI52
     C14FF52  C2019 10 07.40379 06 24 35.22 +54 30 33.4    ~A7A7 19.7 GVNEOCPI52
     C14FF52 KC2019 10 08Im?vF0t/.eO`YiAstrometry0/%=\mqMX\8C4EaDdd8);^m5H!UwL01
     C14FF52 KC2019 10 08;4AxFredacted;CZnnbLPTo?0cOU!jnnYclickIhmd#4D!5h5)\QL01
     C14FF52 KC2019 10 08Ug,%``5I$dYhere%.MshCvV6for:3%_h:'$w=/R*;1D!GHYe'^t.L01
     C14FF52 KC2019 10 081Q-LAH`F-(:hexplanation`7+pDj1U4gV\FB=_Kp2$^DxDg'9UgL01
     C14FF52  C2019 10 10.48351 06 30 57.97 +54 13 38.9    ~AAC7 20.2 GVNEOCPI52
     C14FF52  C2019 10 10.48602 06 30 58.13 +54 13 37.2    ~AAC7       VNEOCPI52
     C14FF52  C2019 10 10.48980 06 30 58.61 +54 13 36.2    ~AAC7       VNEOCPI52
     C14FF52  C2019 10 10.49299 06 30 58.96 +54 13 34.6    ~AAC7       VNEOCPI52

Station data:
(033) Karl Schwarzschild Observatory, Tautenburg  (N50.980140 E11.711240)
   Germany. 1.3-m Schmidt.
(G96) Mt. Lemmon Survey  (N32.442754 W110.788720)  US/Arizona.  Observers T.
   A. Pruyne, B. M. Africano, E. J. Christensen, G. A. Farneth, D. C. Fuls,
   A. R. Gibbs, A. D. Grauer, H. Groeller, J. A. Johnson, R. A. Kowalski, S.
   M. Larson, G. J. Leonard, D. Rankin, R. L. Seaman, F. C. Shelly. 1.5-m
   reflector + 10K CCD.
(I52) Steward Observatory, Mt. Lemmon Station  (N32.442547 W110.788920)
   US/Arizona.  Observers T. A. Pruyne, B. M. Africano, E. J. Christensen, G.
   A. Farneth, D. C. Fuls, A. R. Gibbs, A. D. Grauer, H. Groeller, J. A.
   Johnson, R. A. Kowalski, S. M. Larson, G. J. Leonard, D. Rankin, R. L.
   Seaman, F. C. Shelly. 1.0-m reflector + CCD.
(L01) Višnjan Observatory, Tičan  (N45.290900 E13.749300)  Croatia.
   Observers K. Korlević, E. Pettarin. Measurer E. Pettarin. 1.0-m f/2.9
   reflector + CCD.

Orbital elements:  C14FF52
   Perihelion 2019 Sep 17.876957 +/- 1.05 TT = 21:02:49 (JD 2458744.376957)
Epoch 2019 Oct 10.0 TT = JDT 2458766.5   Earth MOID: 0.7582   AutoNEOCP
M   5.16949891 +/- 0.7              (J2000 ecliptic)
n   0.23367033 +/- 0.0326           Peri.  120.06680 +/- 0.8
a   2.61055989 +/- 0.243            Node   278.51715 +/- 1.0
e   0.3816988 +/- 0.0496            Incl.   28.98463 +/- 0.18
P   4.22                   H 18.0   G  0.15   U 10.4  
q 1.61411209 +/- 0.0237    Q 3.60700769 +/- 0.526
From 22 observations 2019 Oct. 6-10; mean residual 0".43
Residuals in arcseconds: 
191006 G96  .21+  .34-    191007 033  .18-  .00     191008 L01  .16+  .12+    
191006 G96  .28+  .07+    191007 033  .16-  .06-    191008 L01  .08-  .37+    
191006 G96  .49-  .18+    191007 033  .15-  .01-    191010 I52  .68+  .66+    
191006 G96  .48+  .19+    191007 I52  1.0+  .76+    191010 I52  .42-  .19-    
191006 I52  .46-  .00     191007 I52  .95+  .11+    191010 I52  .01+  .11+    
191006 I52  .18-  .46-    191007 I52  .38+  .63-    191010 I52  .11-  .39-    
191006 I52  .05-  .01-    191008 L01  .65-  .93-    
191006 I52  .29-  .64+    191008 L01  .68-  .10-    

Ephemerides (geocentric):
Date (UTC) HH   RA              Dec         delta   r     elong  mag " sig PA
---- -- -- --  -------------   -----------  ------ ------ -----  --- ---- ---
2019 10 10 13  06 31 04.577   +54 13 15.09  1.1242 1.6252  99.7 20.8 .198 171
2019 10 10 14  06 31 09.508   +54 13 00.42  1.1240 1.6252  99.8 20.8 .214 172
2019 10 10 15  06 31 14.432   +54 12 45.72  1.1237 1.6253  99.8 20.8 .230 173
2019 10 10 16  06 31 19.350   +54 12 31.00  1.1234 1.6253  99.8 20.8 .246 174
2019 10 10 17  06 31 24.261   +54 12 16.26  1.1231 1.6253  99.8 20.8 .263 175
2019 10 10 18  06 31 29.165   +54 12 01.50  1.1228 1.6254  99.9 20.8 .280 176
2019 10 10 19  06 31 34.063   +54 11 46.71  1.1225 1.6254  99.9 20.8 .298 176
2019 10 10 20  06 31 38.954   +54 11 31.90  1.1222 1.6255  99.9 20.8 .316 177
2019 10 10 21  06 31 43.839   +54 11 17.07  1.1220 1.6255  99.9 20.8 .334 178
2019 10 10 22  06 31 48.717   +54 11 02.21  1.1217 1.6255 100.0 20.8 .353 178
2019 10 10 23  06 31 53.588   +54 10 47.34  1.1214 1.6256 100.0 20.8 .372 179
2019 10 11 00  06 31 58.453   +54 10 32.43  1.1211 1.6256 100.0 20.8 .392   0
2019 10 11 01  06 32 03.311   +54 10 17.51  1.1208 1.6257 100.0 20.8 .411   0
2019 10 11 02  06 32 08.163   +54 10 02.56  1.1205 1.6257 100.0 20.8 .432   1
2019 10 11 03  06 32 13.008   +54 09 47.59  1.1202 1.6257 100.1 20.8 .452   1
2019 10 11 04  06 32 17.846   +54 09 32.60  1.1200 1.6258 100.1 20.8 .473   1
2019 10 11 05  06 32 22.678   +54 09 17.58  1.1197 1.6258 100.1 20.8 .495   2
2019 10 11 06  06 32 27.503   +54 09 02.55  1.1194 1.6259 100.1 20.8 .517   2
2019 10 11 07  06 32 32.321   +54 08 47.48  1.1191 1.6259 100.2 20.8 .539   3
2019 10 11 08  06 32 37.133   +54 08 32.40  1.1188 1.6260 100.2 20.8 .561   3
2019 10 11 09  06 32 41.938   +54 08 17.29  1.1185 1.6260 100.2 20.8 .584   3
2019 10 11 10  06 32 46.737   +54 08 02.16  1.1182 1.6260 100.2 20.8 .608   4
2019 10 11 11  06 32 51.529   +54 07 47.01  1.1180 1.6261 100.3 20.8 .632   4
2019 10 11 12  06 32 56.314   +54 07 31.84  1.1177 1.6261 100.3 20.8 .656   4
2019 10 11 13  06 33 01.093   +54 07 16.64  1.1174 1.6262 100.3 20.8 .680   4
2019 10 11 14  06 33 05.864   +54 07 01.42  1.1171 1.6262 100.3 20.8 .705   5
2019 10 11 15  06 33 10.630   +54 06 46.18  1.1168 1.6262 100.4 20.8 .731   5
2019 10 11 16  06 33 15.388   +54 06 30.91  1.1165 1.6263 100.4 20.8 .756   5
2019 10 11 17  06 33 20.140   +54 06 15.62  1.1162 1.6263 100.4 20.8 .783   6
2019 10 11 18  06 33 24.886   +54 06 00.31  1.1159 1.6264 100.4 20.8 .809   6
2019 10 11 19  06 33 29.624   +54 05 44.98  1.1157 1.6264 100.4 20.8 .836   6
2019 10 11 20  06 33 34.356   +54 05 29.62  1.1154 1.6265 100.5 20.8 .863   6
2019 10 11 21  06 33 39.081   +54 05 14.24  1.1151 1.6265 100.5 20.8 .891   6
2019 10 11 22  06 33 43.800   +54 04 58.84  1.1148 1.6265 100.5 20.8 .919   7
2019 10 11 23  06 33 48.512   +54 04 43.42  1.1145 1.6266 100.5 20.8 .948   7
2019 10 12 00  06 33 53.217   +54 04 27.97  1.1142 1.6266 100.6 20.8 .977   7
2019 10 12 01  06 33 57.916   +54 04 12.50  1.1139 1.6267 100.6 20.8 1.01   7
2019 10 12 02  06 34 02.607   +54 03 57.01  1.1137 1.6267 100.6 20.8 1.04   7
2019 10 12 03  06 34 07.293   +54 03 41.50  1.1134 1.6268 100.6 20.8 1.07   8
2019 10 12 04  06 34 11.971   +54 03 25.96  1.1131 1.6268 100.7 20.8 1.10   8
2019 10 12 05  06 34 16.643   +54 03 10.40  1.1128 1.6268 100.7 20.8 1.13   8
2019 10 12 06  06 34 21.308   +54 02 54.82  1.1125 1.6269 100.7 20.8 1.16   8
2019 10 12 07  06 34 25.966   +54 02 39.21  1.1122 1.6269 100.7 20.8 1.19   8
2019 10 12 08  06 34 30.617   +54 02 23.59  1.1119 1.6270 100.8 20.8 1.22   9
2019 10 12 09  06 34 35.262   +54 02 07.94  1.1117 1.6270 100.8 20.8 1.26   9
2019 10 12 10  06 34 39.900   +54 01 52.27  1.1114 1.6271 100.8 20.8 1.29   9
2019 10 12 11  06 34 44.532   +54 01 36.57  1.1111 1.6271 100.8 20.8 1.32   9
2019 10 12 12  06 34 49.156   +54 01 20.86  1.1108 1.6271 100.9 20.8 1.36   9